sat.trackr.live / text

‹ back to catalog

IRIDE FM2

NORAD 66696 · 2025-276AG

PAYLOAD ACTIVE UNKNOWN

§ Identity

Operator
Country
IT
Launch date
2025-11-28
Launch site
AFWTR
Launch vehicle
Mass (kg)
RCS (m²)

External: N2YO · Heavens-Above · Gunter

§ Orbital elements

Epoch: 2026-05-25T03:11:45.526848Z

Period
94.73 min
Inclination
97.4189°
Eccentricity
0.0005376
Mean motion
15.20059083 rev/d
Perigee alt
502.0 km
Apogee alt
509.4 km
Semi-major
6,883.8 km
B*
3.2873e-4
RAAN
219.0811°
Arg perigee
94.5832°
Mean anomaly
265.6017°
Rev number
2,692

§ Raw data

IRIDE FM21 66696U 25276AG  26145.13316582  .00007028  00000+0  32873-3 0  99942 66696  97.4189 219.0811 0005376  94.5832 265.6017 15.20059083 26926

JSON: /api/v1/satellites/66696 · /tle

For live sub-satellite position, see the globe view (requires WebGL).

§ Visibility from observer

Set your observer location to see the next 7 days of passes ≥ 10°. The values pass through the URL so the page stays shareable.

No JS? Fill the form by hand. The geolocation button needs JavaScript.